Beatrice, NE

7:15 AM CST on November 12, 2019 (GMT -0600)
Beatrice Municipal

Weather History for KBIE - October, 2019

Change the Weather History Date:

Sunday, October 20, 2019

  Actual Average Record
Temperature  
Mean Temperature 55 °F -  
Max Temperature 64 °F 68 °F 86 °F (1979)
Min Temperature 46 °F 41 °F 23 °F (1960)
Degree Days  
Heating Degree Days 10    
Growing Degree Days 5 (Base 50)    
Moisture  
Dew Point 46 °F    
Average Humidity 71    
Maximum Humidity 95    
Minimum Humidity 49    
Precipitation  
Precipitation 0.00 in - - ()
Sea Level Pressure  
Sea Level Pressure 29.69 in    
Wind  
Wind Speed 8 mph (SSE)    
Max Wind Speed 21 mph    
Max Gust Speed 28 mph    
Visibility 10 miles    
Events Thunderstorm    
Averages and records for this station are not official NWS values.
T = Trace of Precipitation, MM = Missing Value Source: NWS Daily Summary

Daily Weather History Graph

Daily Weather History Graph

Search for Another Location

Airport or City:

Astronomy

Oct. 20, 2019 Rise Set
Actual Time 7:42 AM CDT 6:40 PM CDT
Civil Twilight 7:15 AM CDT 7:07 PM CDT
Nautical Twilight 6:43 AM CDT 7:39 PM CDT
Astronomical Twilight 6:12 AM CDT 8:10 PM CDT
Moon 11:49 PM CDT (10/20) 2:12 PM CDT (10/20)
Length of Visible Light 11h 52m
Length of Day
10h 57m
Waning Gibbous, 59% of the Moon is Illuminated
Oct 20
Waning Gibbous
Oct 21
Last Quarter
Oct 27
New
Nov 4
First Quarter
Nov 12
Full

Hourly Weather History & Observations

Time (CDT) Temp. Windchill Dew Point Humidity Pressure Visibility Wind Dir Wind Speed Gust Speed Precip Events Conditions
12:15 AM 49.1 °F - 39.2 °F 69% 29.80 in 10.0 mi SE 4.6 mph - N/A   Clear
12:35 AM 49.1 °F - 38.8 °F 68% 29.80 in 10.0 mi SSE 4.6 mph - N/A   Clear
12:55 AM 49.5 °F - 39.2 °F 68% 29.80 in 10.0 mi SE 3.5 mph - N/A   Clear
1:15 AM 49.1 °F - 38.8 °F 68% 29.79 in 10.0 mi SE 4.6 mph - N/A   Clear
1:35 AM 47.7 °F - 39.0 °F 72% 29.79 in 10.0 mi SE 5.8 mph - N/A   Clear
1:55 AM 48.0 °F - 39.2 °F 72% 29.79 in 10.0 mi ESE 4.6 mph - N/A   Clear
2:15 AM 47.7 °F - 39.4 °F 73% 29.78 in 10.0 mi SE 5.8 mph - N/A   Clear
2:35 AM 47.5 °F - 39.6 °F 74% 29.78 in 10.0 mi SE 5.8 mph - N/A   Clear
2:55 AM 47.8 °F - 40.5 °F 76% 29.78 in 10.0 mi SSE 8.1 mph - N/A   Clear
3:15 AM 48.2 °F - 41.2 °F 77% 29.78 in 10.0 mi SSE 5.8 mph - N/A   Clear
3:35 AM 47.7 °F - 41.7 °F 80% 29.78 in 10.0 mi SE 5.8 mph - N/A   Clear
3:55 AM 47.5 °F - 42.1 °F 82% 29.78 in 10.0 mi SE 4.6 mph - N/A   Clear
4:10 AM 47.3 °F - 42.3 °F 83% 29.77 in 10.0 mi SSE 5.8 mph - N/A   Clear
4:35 AM 47.8 °F - 42.8 °F 83% 29.76 in 10.0 mi SE 6.9 mph - N/A   Clear
4:55 AM 47.3 °F - 42.4 °F 83% 29.76 in 10.0 mi SE 5.8 mph - N/A   Clear
5:15 AM 46.6 °F - 42.8 °F 87% 29.77 in 10.0 mi SSE 5.8 mph - N/A   Clear
5:35 AM 46.6 °F - 42.8 °F 87% 29.77 in 10.0 mi SSE 5.8 mph - N/A   Clear
5:55 AM 46.4 °F 45.2 °F 43.0 °F 88% 29.77 in 10.0 mi SSE 3.5 mph - N/A   Clear
6:15 AM 46.9 °F - 43.7 °F 88% 29.76 in 10.0 mi SE 5.8 mph - N/A   Clear
6:35 AM 47.3 °F - 44.4 °F 90% 29.77 in 10.0 mi SSE 6.9 mph - N/A   Clear
6:55 AM 47.7 °F - 45.3 °F 92% 29.76 in 10.0 mi SE 8.1 mph - N/A   Clear
7:15 AM 47.5 °F - 45.7 °F 93% 29.76 in 10.0 mi SSE 8.1 mph - N/A   Clear
7:35 AM 47.5 °F - 46.0 °F 95% 29.75 in 10.0 mi SSE 8.1 mph - N/A   Clear
7:55 AM 48.0 °F - 46.6 °F 95% 29.75 in 10.0 mi SSE 9.2 mph - N/A   Clear
8:15 AM 48.9 °F - 47.3 °F 94% 29.75 in 10.0 mi SSE 11.5 mph - N/A   Clear
8:35 AM 50.5 °F - 48.2 °F 92% 29.75 in 10.0 mi SSE 11.5 mph - N/A   Clear
8:55 AM 52.0 °F - 48.9 °F 89% 29.75 in 10.0 mi SSE 12.7 mph 16.1 mph N/A   Clear
9:15 AM 53.1 °F - 49.1 °F 86% 29.74 in 10.0 mi SE 15.0 mph - N/A   Clear
9:35 AM 56.1 °F - 50.4 °F 81% 29.72 in 10.0 mi SE 20.7 mph 25.3 mph N/A   Clear
9:55 AM 59.0 °F - 50.9 °F 74% 29.72 in 10.0 mi SE 15.0 mph 21.9 mph N/A   Clear
10:15 AM 60.8 °F - 50.0 °F 68% 29.72 in 10.0 mi SE 18.4 mph 24.2 mph N/A   Clear
10:35 AM 60.1 °F - 49.1 °F 67% 29.73 in 10.0 mi SSE 15.0 mph 24.2 mph N/A   Clear
10:55 AM 60.8 °F - 49.3 °F 66% 29.71 in 10.0 mi SSE 17.3 mph 26.5 mph N/A   Clear
11:15 AM 61.2 °F - 49.1 °F 65% 29.71 in 10.0 mi SSE 17.3 mph 25.3 mph N/A   Clear
11:35 AM 61.2 °F - 48.6 °F 63% 29.71 in 10.0 mi SSE 19.6 mph 27.6 mph N/A   Scattered Clouds
11:55 AM 61.3 °F - 48.6 °F 63% 29.73 in 10.0 mi South 16.1 mph 24.2 mph N/A   Scattered Clouds
12:15 PM 61.0 °F - 47.3 °F 61% 29.71 in 10.0 mi SSE 17.3 mph 24.2 mph N/A   Mostly Cloudy
12:35 PM 61.0 °F - 47.3 °F 61% 29.69 in 10.0 mi SE 16.1 mph 21.9 mph N/A   Overcast
12:55 PM 61.2 °F - 47.7 °F 61% 29.70 in 10.0 mi SSE 11.5 mph 20.7 mph N/A   Overcast
1:15 PM 62.1 °F - 46.8 °F 57% 29.69 in 10.0 mi SSE 16.1 mph 20.7 mph N/A   Overcast
1:35 PM 63.0 °F - 47.3 °F 57% 29.66 in 10.0 mi SE 17.3 mph 25.3 mph N/A   Mostly Cloudy
1:55 PM 64.0 °F - 45.7 °F 51% 29.64 in 10.0 mi SSE 16.1 mph 27.6 mph N/A   Mostly Cloudy
2:15 PM 64.4 °F - 46.6 °F 52% 29.63 in 10.0 mi SE 15.0 mph 24.2 mph N/A   Scattered Clouds
2:35 PM 64.0 °F - 44.2 °F 49% 29.62 in 10.0 mi SE 16.1 mph 27.6 mph N/A   Clear
2:55 PM 63.7 °F - 45.0 °F 51% 29.61 in 10.0 mi SE 15.0 mph 21.9 mph N/A   Scattered Clouds
3:15 PM 63.7 °F - 45.1 °F 51% 29.61 in 10.0 mi SE 16.1 mph 23.0 mph N/A   Mostly Cloudy
3:35 PM 63.5 °F - 44.1 °F 49% 29.61 in 10.0 mi SSE 15.0 mph 24.2 mph N/A   Overcast
3:55 PM 63.5 °F - 44.8 °F 51% 29.61 in 10.0 mi SE 13.8 mph 23.0 mph N/A   Scattered Clouds
4:15 PM 63.1 °F - 46.0 °F 54% 29.61 in 10.0 mi SSE 11.5 mph - N/A   Scattered Clouds
4:35 PM 63.1 °F - 46.6 °F 55% 29.61 in 10.0 mi SSE 12.7 mph 18.4 mph N/A   Scattered Clouds
4:55 PM 63.3 °F - 46.9 °F 55% 29.61 in 10.0 mi SE 11.5 mph 18.4 mph N/A   Mostly Cloudy
5:15 PM 63.1 °F - 47.1 °F 56% 29.61 in 10.0 mi SSE 10.4 mph 20.7 mph N/A   Mostly Cloudy
5:35 PM 62.6 °F - 46.8 °F 56% 29.61 in 10.0 mi SE 15.0 mph 20.7 mph N/A   Overcast
5:55 PM 62.2 °F - 47.3 °F 58% 29.60 in 10.0 mi SSE 11.5 mph 16.1 mph N/A   Overcast
6:15 PM 61.7 °F - 47.8 °F 60% 29.61 in 10.0 mi South 3.5 mph - N/A   Overcast
6:35 PM 61.3 °F - 48.2 °F 62% 29.60 in 10.0 mi SSE 6.9 mph - N/A   Overcast
6:55 PM 61.0 °F - 48.6 °F 64% 29.60 in 10.0 mi SSE 9.2 mph - N/A   Overcast
7:15 PM 60.8 °F - 49.1 °F 65% 29.61 in 10.0 mi South 9.2 mph - N/A   Overcast
7:35 PM 60.4 °F - 49.5 °F 67% 29.62 in 10.0 mi SW 8.1 mph - N/A   Overcast
7:55 PM 59.9 °F - 49.8 °F 69% 29.62 in 10.0 mi SSE 8.1 mph - N/A   Overcast
8:15 PM 59.9 °F - 50.2 °F 70% 29.62 in 10.0 mi SSE 8.1 mph - N/A   Overcast
8:35 PM 59.5 °F - 50.4 °F 72% 29.59 in 10.0 mi SE 9.2 mph - N/A   Overcast
8:55 PM 58.3 °F - 50.4 °F 75% 29.60 in 10.0 mi SSE 4.6 mph - N/A   Overcast
9:15 PM 58.1 °F - 50.9 °F 77% 29.60 in 10.0 mi SE 5.8 mph - N/A Thunderstorm Mostly Cloudy
9:35 PM 57.2 °F - 52.0 °F 83% 29.61 in 10.0 mi SSE 9.2 mph - N/A   Overcast
9:55 PM 58.1 °F - 50.7 °F 76% 29.60 in 10.0 mi South 5.8 mph 9.2 mph N/A   Overcast
10:15 PM 57.4 °F - 50.4 °F 77% 29.58 in 10.0 mi SSE 4.6 mph - N/A   Mostly Cloudy
10:35 PM 55.0 °F - 51.1 °F 86% 29.58 in 10.0 mi South 4.6 mph - N/A   Clear
10:55 PM 54.5 °F - 50.9 °F 88% 29.57 in 10.0 mi South 5.8 mph - N/A   Clear
11:15 PM 55.0 °F - 48.9 °F 80% 29.56 in 10.0 mi SSW 4.6 mph - N/A   Clear
11:35 PM 54.0 °F - 43.7 °F 68% 29.54 in 10.0 mi WSW 6.9 mph - N/A   Clear
11:55 PM 52.3 °F - 39.9 °F 63% 29.52 in 10.0 mi WSW 6.9 mph - N/A   Clear